Tracking 19832 objects as of 25-Aug-2019
HD Live streaming from Space Station
objects crossing your sky now

CZ-2D DEB

Track CZ-2D DEB now!
10-day predictions


NORAD ID: 43200
Int'l Code: 2018-015J
Perigee: 450.4 km
Apogee: 493.1 km
Inclination: 97.5 °
Period: 93.9 minutes
Semi major axis: 6842 km
RCS: Unknown
Launch date: February 2, 2018
Source: People's Republic of China (PRC)
Launch site: Jiuquan Satellite Launch Center, China (JSC)
aabbcc
Your satellite tracking list
Your tracking list is empty




NASA's NSSDC Master Catalog

Two Line Element Set (TLE):
1 43200U 18015J   19236.63049778  .00002290  00000-0  71643-4 0  9997
2 43200  97.5134  18.6788 0031160 127.4556 232.9545 15.33764306 86988
Source of the keplerian elements: AFSPC